Flag for Angola Weather past 2 weeks in Lubango, Angola

Now
63 °F

Mild.


Feels Like: 63 °F
Forecast: 51 / 71 °F
Wind: 1 mph from West

Location: Ondangwa

Current Time: Jul 24, 2014 at 9:47:28 PM

Latest Report: Jul 24, 2014 at 9:00 PM


Visibility: N/A

Pressure: 30.12 "Hg

Humidity: 30%

Dew point: 30 °F

Location of LubangoLocation

Historic Weather in Lubango — Graph

°F

Lubango temperature yesterday

Maximum temperature yesterday: 86 °F (at 2:00 PM)
Minimum temperature yesterday: 54 °F (at 5:00 AM)
Average temperature yesterday: 68 °F

Past Weeks' High & Low Weather Summary

 TemperatureHumidityPressure
High88 °F (Jul 20, 3:00 PM)58% (Jul 17, 6:00 AM)30.30 "Hg (Jul 17, 6:00 AM)
Low46 °F (Jul 12, 4:00 AM)6% (Jul 14, 1:00 PM)30.07 "Hg (Jul 13, 3:00 PM)
Average66 °F28%30.17 "Hg
* Reported Jul 9 8:00 PM — Jul 24 8:00 PM, Lubango, Weather by CustomWeather, © 2014

Note: Actual official high and low records may vary slightly from our data, if they occured in-between our weather recording intervals... More about our weather records

Advertising

Lubango weather history for previous 24 hours

 ConditionsComfort  
Time TempWeatherWind HumidityBarometerVisibility
8:00 PM
Jul 24
64 °FMild.1 mph26%30.12 "HgN/A
7:00 PM70 °FClear.2 mph23%30.09 "Hg10 mi
6:00 PM75 °FClear.No wind16%30.09 "Hg10 mi
5:00 PM84 °FSunny.No wind12%30.07 "Hg10 mi
4:00 PM86 °FSunny.2 mph11%30.07 "Hg10 mi
3:00 PM86 °FSunny.2 mph11%30.07 "Hg10 mi
2:00 PM86 °FSunny.2 mph12%30.09 "Hg10 mi
1:00 PM86 °FPleasantly warm.5 mph11%30.12 "HgN/A
12:00 PM84 °FPleasantly warm.3 mph12%30.18 "HgN/A
11:00 AM82 °FSunny.5 mph16%30.21 "Hg10 mi
10:00 AM77 °FSunny.5 mph19%30.24 "Hg10 mi
9:00 AM70 °FSunny.6 mph27%30.21 "Hg10 mi
8:00 AM63 °FSunny.3 mph32%30.18 "Hg10 mi
7:00 AM55 °FSunny.3 mph41%30.18 "Hg10 mi
6:00 AM52 °FCool.3 mph47%30.15 "HgN/A
5:00 AM54 °FCool.3 mph44%30.15 "HgN/A
4:00 AM55 °FRefreshingly cool.3 mph41%30.15 "HgN/A
3:00 AM55 °FRefreshingly cool.3 mph41%30.15 "HgN/A
2:00 AM57 °FRefreshingly cool.3 mph36%30.15 "HgN/A
1:00 AM57 °FRefreshingly cool.3 mph36%30.15 "HgN/A
12:00 AM59 °FRefreshingly cool.5 mph34%30.15 "HgN/A
11:00 PM
Jul 23
61 °FRefreshingly cool.5 mph31%30.15 "HgN/A
10:00 PM63 °FMild.3 mph30%30.15 "HgN/A
9:00 PM64 °FMild.2 mph28%30.15 "HgN/A
Weather by CustomWeather, © 2014

See weather overviewHow to use our weather pages